Shelby, NC

7:39 PM EST on December 05, 2019 (GMT -0500)
Shelby Municipal

Weather History for KEHO - October, 2019

Change the Weather History Date:

Tuesday, October 22, 2019

  Actual Average (WUND) Record (WUND)
Temperature  
Mean Temperature 64 °F -  
Max Temperature 75 °F - - (-1)
Min Temperature 54 °F - - (-1)
Growing Degree Days 14 (Base 50)    
Moisture  
Dew Point 61 °F    
Average Humidity 91    
Maximum Humidity 100    
Minimum Humidity 58    
Precipitation  
Precipitation 0.03 in - - ()
Sea Level Pressure  
Sea Level Pressure 29.92 in    
Wind  
Wind Speed 5 mph (South)    
Max Wind Speed 16 mph    
Max Gust Speed 20 mph    
Visibility 7 miles    
Events Fog , Rain    
Averages and records for this station are not official NWS values.
T = Trace of Precipitation, MM = Missing Value Source: NWS Daily Summary

Daily Weather History Graph

Daily Weather History Graph

Search for Another Location

Airport or City:

Astronomy

Oct. 22, 2019 Rise Set
Actual Time 7:38 AM EDT 6:42 PM EDT
Civil Twilight 7:12 AM EDT 7:08 PM EDT
Nautical Twilight 6:42 AM EDT 7:38 PM EDT
Astronomical Twilight 6:13 AM EDT 8:07 PM EDT
Moon 1:04 AM EDT (10/22) 3:34 PM EDT (10/22)
Length of Visible Light 11h 56m
Length of Day
11h 04m
Last Quarter, 37% of the Moon is Illuminated
Oct 22
Last Quarter
Oct 27
New
Nov 4
First Quarter
Nov 12
Full
Nov 19
Last Quarter

Hourly Weather History & Observations

Time (EDT) Temp. Dew Point Humidity Pressure Visibility Wind Dir Wind Speed Gust Speed Precip Events Conditions
12:15 AM 62.1 °F 61.2 °F 97% 30.02 in 10.0 mi ENE 4.6 mph - N/A   Mostly Cloudy
12:35 AM 61.7 °F 60.8 °F 97% 30.00 in 10.0 mi ENE 3.5 mph - N/A   Scattered Clouds
12:55 AM 61.5 °F 60.8 °F 97% 29.99 in 10.0 mi ENE 4.6 mph - N/A   Mostly Cloudy
1:15 AM 61.9 °F 61.2 °F 97% 29.99 in 10.0 mi Calm Calm - N/A   Overcast
1:35 AM 62.6 °F 61.7 °F 97% 29.98 in 10.0 mi East 3.5 mph - N/A   Overcast
1:55 AM 63.1 °F 62.1 °F 96% 29.97 in 10.0 mi Calm Calm - N/A   Overcast
2:15 AM 64.4 °F 63.0 °F 95% 29.97 in 10.0 mi Calm Calm - N/A   Overcast
2:35 AM 64.6 °F 63.0 °F 94% 29.97 in 10.0 mi Calm Calm - N/A   Overcast
2:55 AM 64.8 °F 63.1 °F 94% 29.97 in 10.0 mi South 3.5 mph - N/A   Overcast
3:15 AM 64.4 °F 63.1 °F 96% 29.96 in 10.0 mi SSE 3.5 mph - N/A Rain Rain
3:55 AM 64.4 °F 63.1 °F 96% 29.92 in 10.0 mi SSE 6.9 mph - N/A   Overcast
4:15 AM 64.4 °F 63.1 °F 96% 29.92 in 10.0 mi SSE 5.8 mph - N/A   Overcast
4:35 AM 64.4 °F 63.1 °F 96% 29.92 in 10.0 mi South 4.6 mph - N/A   Overcast
4:55 AM 64.0 °F 63.1 °F 97% 29.91 in 7.0 mi SSE 3.5 mph - N/A   Overcast
5:15 AM 63.9 °F 63.5 °F 99% 29.91 in 4.0 mi SSE 3.5 mph - N/A Rain Rain
5:35 AM 63.7 °F 63.5 °F 99% 29.91 in 4.0 mi SSE 4.6 mph - 0.01 in   Overcast
5:55 AM 63.5 °F 63.5 °F 100% 29.92 in 7.0 mi SSE 4.6 mph - 0.01 in Rain Light Rain
6:15 AM 63.5 °F 63.5 °F 100% 29.90 in 7.0 mi SE 4.6 mph - 0.01 in Rain Light Rain
6:35 AM 63.5 °F 63.5 °F 100% 29.91 in 7.0 mi SE 3.5 mph - 0.01 in   Overcast
6:55 AM 63.5 °F 63.5 °F 100% 29.89 in 7.0 mi SE 5.8 mph - 0.01 in   Overcast
7:15 AM 64.0 °F 63.9 °F 99% 29.90 in 7.0 mi South 4.6 mph - N/A   Overcast
7:35 AM 64.2 °F 64.2 °F 100% 29.89 in 5.0 mi South 6.9 mph - N/A   Overcast
7:55 AM 64.4 °F 64.4 °F 100% 29.89 in 3.0 mi South 6.9 mph - 0.01 in   Overcast
8:15 AM 64.6 °F 64.6 °F 100% 29.89 in 1.8 mi SSE 6.9 mph - N/A   Overcast
8:35 AM 64.8 °F 64.8 °F 100% 29.87 in 1.2 mi SSE 8.1 mph - N/A   Overcast
8:55 AM 64.9 °F 64.9 °F 100% 29.87 in 0.8 mi South 10.4 mph - N/A   Overcast
9:15 AM 65.3 °F 65.3 °F 100% 29.88 in 0.8 mi South 9.2 mph - N/A   Overcast
9:35 AM 65.7 °F 65.7 °F 100% 29.88 in 0.5 mi South 8.1 mph - N/A Fog Fog
9:55 AM 66.0 °F 66.0 °F 100% 29.87 in 0.5 mi South 9.2 mph - N/A Fog Fog
10:15 AM 66.4 °F 66.4 °F 100% 29.87 in 1.8 mi South 6.9 mph - N/A   Overcast
1:35 PM 73.6 °F 63.3 °F 70% 29.83 in 10.0 mi SW 16.1 mph 19.6 mph N/A   Mostly Cloudy
1:55 PM 74.5 °F 63.0 °F 67% 29.81 in 10.0 mi SW 13.8 mph 18.4 mph N/A   Scattered Clouds
2:15 PM 75.0 °F 61.0 °F 62% 29.80 in 10.0 mi WSW 11.5 mph - N/A   Clear
2:35 PM 75.7 °F 59.9 °F 58% 29.80 in 10.0 mi SW 12.7 mph - N/A   Clear
10:55 PM 55.9 °F 41.4 °F 58% 29.97 in 10.0 mi WSW 4.6 mph - N/A   Clear
11:15 PM 54.9 °F 41.7 °F 61% 29.98 in 10.0 mi WSW 5.8 mph - N/A   Clear
11:35 PM 54.7 °F 41.4 °F 61% 29.98 in 10.0 mi West 4.6 mph - N/A   Clear